Regional Weather Roundup
Issued by NWS

Home | Current Version | Previous Version | Text Only | Print | Product List | Glossary On
Versions: 1 2 3 4 5 6 7 8 9 10 11 12 13 14 15 16 17 18 19 20 21 22 23 24 25 26 27 28 29 30 31 32 33 34 35 36 37 38 39 40 41 42 43 44 45 46 47 48 49 50
000
ASUS44 KEWX 221410
RWRTX
SOUTH TEXAS REGIONAL WEATHER ROUNDUP
NATIONAL WEATHER SERVICE AUSTIN/SAN ANTONIO TX
800 AM CST SAT NOV 22 2014

NOTE: "FAIR" INDICATED FEW OR NO CLOUDS BELOW 12,000 FEET WITH NO
SIGNIFICANT WEATHER AND/OR OBSTRUCTIONS TO VISIBILITY.

* - THESE STATIONS ARE NOT NWS OR FAA STATIONS...AND ARE NOT SUBJECT
    TO NWS AND FAA QUALITY CONTROL.

TXZ171-172-183>190-221500-
TEXAS HILL COUNTRY AND EDWARDS PLATEAU

CITY           SKY/WX    TMP DP  RH WIND       PRES   REMARKS
JUNCTION       CLOUDY    64  61  90 E6        29.95F
*LLANO         CLOUDY    64  64 100 SE7       30.01F
BURNET         CLOUDY    64  62  93 SE10G21   30.01F
*HORSESHOE BAY RAIN      65  65 100 SE6       30.00S
*KERRVILLE     CLOUDY    65  62  90 SE15      29.97F THUNDER
*FREDERICKSBRG DRIZZLE   64  62  94 S9        29.98S
*ROCKSPRINGS   CLOUDY    63  63 100 MISG      29.96S FOG
*BOERNE STAGE  CLOUDY    64  63  94 S14G22    29.99F
*CASTROVILLE   DRIZZLE   67  66  98 SE10      29.97F
HONDO          LGT RAIN  62  32  32 SE15      29.96F
*UVALDE        RAIN      68  67  96 SE14G20   29.94F
DEL RIO        LGT RAIN  67  65  93 SE10      29.90S FOG
LAUGHLIN AFB   CLOUDY    66  66 100 N12       29.91R
CARRIZO SPRGS  CLOUDY    66  64  94 SE7       29.91R
$$

TXZ173-191>194-202-209-217>225-228-221500-
CENTRAL AND SOUTH CENTRAL TEXAS

CITY           SKY/WX    TMP DP  RH WIND       PRES   REMARKS
GEORGETOWN     CLOUDY    64  63  94 SE7       30.02R
AUSTIN/BERGSTM TSTM      65  63  93 SE6       30.03R
AUSTIN/MABRY   TSTM      65  63  93 SE8       30.02F
*AUSTIN/EXEC   CLOUDY    64  63  94 S6        30.04R
*LAGO VISTA    CLOUDY    65  63  93 SE7       30.03R
SAN MARCOS     TSTM      66  63  88 SE7       30.03R
NEW BRAUNFELS    N/A    N/A N/A N/A MISG      29.99S
RANDOLPH AFB   CLOUDY    66  64  94 SE12      29.98F
PT SAN ANTONIO LGT RAIN  67  66  97 SE15      29.95F
SAN ANTONIO    CLOUDY    67  65  93 SE14      29.98F FOG
STINSON FIELD  CLOUDY    68  65  90 SE12      29.95F
*PLEASANTON    RAIN      69  65  89 SE10G18   29.97S
*LA GRANGE     CLOUDY    64  64  97 E3        30.00S
*GIDDINGS      PTSUNNY   63  61  94 SE7       30.05F
*GONZALES      CLOUDY    67  65  93 SE5       30.00R
$$

TXZ163>164-176>182-195>201-210>213-226-227-235-221500-
SOUTHEAST TEXAS

CITY           SKY/WX    TMP DP  RH WIND       PRES   REMARKS
COLLEGE STN    CLOUDY    61  59  93 SE9       30.05R
*BRYAN         CLOUDY    60  59  95 SE10      30.07S
*CALDWELL      CLOUDY    63  63 100 E9        30.07S
*CROCKETT      MOSUNNY   59  55  88 SE7       30.12S
*BRENHAM       CLOUDY    63  61  94 SE6       30.05F
HUNTSVILLE     MOSUNNY   57  54  89 SE5       30.08F
CONROE         MOSUNNY   57  55  93 SE7       30.10S
HOUSTON BUSH   PTSUNNY   63  59  88 E8        30.08S
HOUSTON HOBBY  PTSUNNY   62  60  93 E14       30.07S
*HOUSTON SW AP MOSUNNY   54  54  98 E10       30.06S
PEARLAND       MOSUNNY   64  61  90 E9        30.08S
HOUSTON HOOKS  CLOUDY    59  58  96 E5        30.08S FOG
ELLINGTON FLD  PTSUNNY   63  63 100 E12       30.09R
SUGAR LAND     MOSUNNY   63  61  93 E9        30.05F
*HOUSTON EXEC  MOSUNNY   63 N/A N/A E12       30.06F
*CLEVELAND MUN NOT AVBL
*WHARTON       CLOUDY    63  62  96 E3        30.04S
*COLUMBUS      FAIR      62  62  98 E8        30.02F
$$

TXZ214>216-236>238-221500-
THE UPPER TEXAS COAST

CITY           SKY/WX    TMP DP  RH WIND       PRES   REMARKS
*ORANGE        CLOUDY    56  56  99 E9        30.14F
PORT ARTHUR    CLOUDY    59  54  83 E13       30.12S
GALVESTON      PTSUNNY   64  62  93 E15       30.07F
ANGLETON       PTSUNNY   63  63 100 E8        30.04F
*BAY CITY      LGT RAIN  68  66  93 E6        30.03S
PALACIOS       CLOUDY    67  65  93 E10       30.01S
$$

TXZ229>234-239>247-221500-
TEXAS COASTAL BEND AND RIO GRANDE PLAINS

CITY           SKY/WX    TMP DP  RH WIND       PRES   REMARKS
VICTORIA       CLOUDY    68  65  90 E7        30.01S
*BEEVILLE      CLOUDY    69  69  99 SE8       29.97S
ROCKPORT       PTSUNNY   69  65  86 SE6       29.99R
*PORT ARANSAS  CLOUDY    70  67  91 SE17G26   29.97R FOG
*PORT LAVACA   CLOUDY    65  63  91 E3        30.02R
*INGLESIDE     PTSUNNY   71  67  88 SE20G31   29.95S
CORPUS CHRISTI PTSUNNY   72  69  90 SE16      29.96F
CORPUS NAS     CLOUDY    70  32  24 SE17      29.96R THUNDER
*ROBSTOWN      CLOUDY    73  69  88 SE14      29.96
ALICE          CLOUDY    71  68  90 SE12G24   29.95F
KINGSVILLE NAS LGT RAIN  70  69  97 SE13      29.94F
COTULLA        LGT RAIN  69  67  93 SE10      29.93F FOG
*FAITH RANCH   PTCLDY    66  66 100 SE8       29.91S
LAREDO         MOSUNNY   71  65  81 SE21      29.94F
$$

TXZ248>255-221500-
DEEP SOUTH TEXAS

CITY           SKY/WX    TMP DP  RH WIND       PRES   REMARKS
BROWNSVILLE    LGT RAIN  71  67  87 SE21G35   29.90F
PORT ISABEL    CLOUDY    72  69  90 SE8       29.94S
*SOUTH PADRE   CLOUDY    68  68 100 SE28      29.93F VSB 1/2
HARLINGEN      CLOUDY    72  70  93 SE12      29.92F
*HEBBRONVILLE  CLOUDY    69  67  92 SE12      29.94R
MCALLEN        MOSUNNY   70  68  93 SE12      29.94R
*WESLACO       CLOUDY    71  67  88 SE8       29.92R
FALFURRIAS     MOSUNNY   71  68  92 SE9       29.93F
EDINBURG       CLOUDY    72  69  89 SE9       29.93R
*ZAPATA        CLOUDY    70  66  87 SE8       29.93R
$$

TXZ213>215-236>238-242>244-246-247-251-254-255-221500-
CMAN STATIONS

STATION/POSITION TIME  TEMP    WIND        PRES    WAVE
                       AIR SEA DIR/SP/G            HT/PER
                 (UTC) (F)     (DEG/KT/KT) (MB)    (FT/S)
SABINE PASS      1400   58 58   90/  9/ 13 1019.4
SEA RIM ST PARK  1400   59      80/ 11/ 14 1019.5
NORTH JETTY/GLS  1400   62 60  120/ 17/ 20   N/A
EAGLE POINT      1400   60 56  110/ 13/ 15 1018.2
MORGANS POINT    1400   60      90/ 10/ 13 1018.3
MISSION/ARANSAS  1300          100/ 21     1014.0
PORT O`CONNOR    1400          110/ 16/ 19   N/A
PORT ARANSAS     1400   69 64  120/ 17/ 18 1015.4
MALAQUITE BEACH  1400   69 67  110/ 17/ 19 1014.1
BAFFIN BAY       1400   69 73  120/ 12/ 15 1014.3
PORT ISABEL      1400   70 64  140/ 18/ 24 1013.2
$$

GMZ080-GMZ150>470-221500-
OFFSHORE BUOY REPORTS

STATION/POSITION TIME  TEMP    WIND        PRES    WAVE
                       AIR SEA DIR/SP/G            HT/PER
                 (UTC) (F)     (DEG/KT/KT) (MB)    (FT/S)
20 E GALVESTON   1400   63 62   90/ 16/ 19 1017.5    4/ 7
90 E PT ARANSAS  1400   74 74  120/ 19/ 23 1016.1    6/ 6
35 NE PT MANSFLD 1400   74 74  140/ 19/ 23 1014.4    7/ 8
200 E PT ISABEL  1400   73 75  120/ 21/ 25 1017.4    6/ 7
$$


USA.gov is the U.S. government's official web portal to all federal, state and local government web resources and services.